Location: Sevilla
(37.3933°N, 5.9839°W)
Time: 05:03:09
(UTC+02:00)

Tiros 1 despin weight - Pass Details

Date: 29 June 2024
Orbit: 576 x 620 km, 48.2° (Epoch: 22 July)

Event Time Altitude Azimuth Distance (km) Brightness Sun altitude
Rises 12:42:46 0° 262° (W) 2,866 ? 63.4°
Reaches altitude 10° 12:45:13 10° 271° (W) 1,969 ? 63.9°
Maximum altitude 12:49:23 35° 338° (NNW) 999 ? 64.6°
Drops below altitude 10° 12:53:35 10° 45° (NE) 1,987 ? 65.4°
Sets 12:56:05 0° 54° (NE) 2,896 ? 65.8°
